Tracking 20241 objects as of 26-Jan-2020
HD Live streaming from Space Station
objects crossing your sky now

COSMOS 2251 DEB

Track COSMOS 2251 DEB now!
10-day predictions


NORAD ID: 35993
Int'l Code: 1993-036AWK
Perigee: 704.0 km
Apogee: 753.4 km
Inclination: 74.0 °
Period: 99.2 minutes
Semi major axis: 7099 km
RCS: 0.0057 m2 (small)
Launch date: June 16, 1993
Source: Commonwealth of Independent States (former USSR) (CIS)
Launch site: PLESETSK MISSILE AND SPACE COMPLEX (PKMTR)

Note: This is SATELLITE DEBRIS
aabbcc
Your satellite tracking list
Your tracking list is empty




NASA's NSSDC Master Catalog

Two Line Element Set (TLE):
1 35993U 93036AWK 20025.43659824 +.00000232 +00000-0 +65043-4 0  9999
2 35993 074.0194 085.6104 0034735 079.2885 281.2183 14.51250797291920
Source of the keplerian elements: AFSPC